AIE330 CYQR-CYWG

Flight info

Callsign AIE330
Flight time 1h 7m
Altitude 25000
Route CYQR2/31 EMLIK DCT SEGAP BEFAN5
Aircraft B350/L-SBGRW/S

Departure

Time 2026-04-17 03:17
Airport Regina International Airport (CYQR)

Arrival

Time 2026-04-17 04:25
Airport Winnipeg / James Armstrong Richardson International Airport (CYWG)
Time Latitude Longitude Altitude Speed Heading
2026-04-17 02:36 50.43849 -104.65315 1877 ft 0 kts 120°
2026-04-17 02:38 50.43849 -104.65314 1877 ft 1 kts 120°
2026-04-17 03:11 50.43845 -104.65305 1877 ft 3 kts 120°
2026-04-17 03:11 50.43808 -104.65321 1877 ft 10 kts 229°
2026-04-17 03:12 50.43768 -104.65420 1880 ft 11 kts 270°
2026-04-17 03:12 50.43767 -104.65574 1880 ft 16 kts 269°
2026-04-17 03:12 50.43769 -104.65776 1882 ft 20 kts 270°
2026-04-17 03:12 50.43769 -104.65925 1884 ft 6 kts 269°
2026-04-17 03:13 50.43750 -104.66017 1884 ft 12 kts 225°
2026-04-17 03:13 50.43679 -104.66139 1884 ft 18 kts 228°
2026-04-17 03:13 50.43588 -104.66256 1887 ft 16 kts 168°
2026-04-17 03:13 50.43499 -104.66125 1888 ft 20 kts 131°
2026-04-17 03:14 50.43372 -104.65956 1888 ft 25 kts 136°
2026-04-17 03:14 50.43217 -104.65737 1888 ft 33 kts 137°
2026-04-17 03:14 50.43051 -104.65506 1887 ft 28 kts 134°
2026-04-17 03:14 50.42908 -104.65302 1887 ft 25 kts 138°
2026-04-17 03:15 50.42772 -104.65108 1887 ft 27 kts 139°
2026-04-17 03:15 50.42635 -104.64920 1887 ft 14 kts 146°
2026-04-17 03:15 50.42535 -104.64898 1887 ft 0 kts 184°
2026-04-17 03:16 50.42533 -104.64899 1887 ft 2 kts 184°
2026-04-17 03:16 50.42477 -104.64917 1887 ft 17 kts 210°
2026-04-17 03:16 50.42464 -104.65041 1889 ft 15 kts 323°
2026-04-17 03:16 50.42475 -104.65054 1889 ft 0 kts 319°
2026-04-17 03:17 50.42477 -104.65056 1889 ft 4 kts 318°
2026-04-17 03:17 50.42694 -104.65368 1891 ft 88 kts 319°
2026-04-17 03:17 50.43080 -104.65955 1996 ft 125 kts 315°
2026-04-17 03:17 50.43659 -104.66991 2684 ft 134 kts 314°
2026-04-17 03:18 50.44279 -104.68199 3381 ft 149 kts 312°
2026-04-17 03:18 50.44932 -104.69338 4351 ft 139 kts 315°
2026-04-17 03:18 50.45585 -104.70487 4965 ft 157 kts 316°
2026-04-17 03:18 50.46461 -104.71881 5045 ft 201 kts 316°
2026-04-17 03:19 50.47501 -104.73505 5659 ft 208 kts 316°
2026-04-17 03:19 50.48463 -104.74972 6833 ft 187 kts 316°
2026-04-17 03:19 50.49363 -104.76284 7797 ft 174 kts 316°
2026-04-17 03:19 50.50292 -104.77466 8471 ft 174 kts 330°
2026-04-17 03:20 50.51477 -104.77827 8962 ft 185 kts
2026-04-17 03:20 50.52632 -104.76849 9411 ft 196 kts 48°
2026-04-17 03:20 50.53164 -104.74912 9850 ft 199 kts 89°
2026-04-17 03:20 50.52982 -104.72748 10336 ft 199 kts 109°
2026-04-17 03:21 50.52624 -104.70660 10854 ft 200 kts 109°
2026-04-17 03:21 50.52314 -104.68550 11383 ft 200 kts 106°
2026-04-17 03:21 50.52074 -104.66419 11925 ft 199 kts 104°
2026-04-17 03:21 50.51889 -104.64268 12442 ft 199 kts 102°
2026-04-17 03:22 50.51725 -104.62117 12935 ft 199 kts 102°
2026-04-17 03:22 50.51570 -104.59955 13420 ft 200 kts 102°
2026-04-17 03:22 50.51421 -104.57814 13892 ft 199 kts 102°
2026-04-17 03:22 50.51274 -104.55664 14343 ft 198 kts 102°
2026-04-17 03:23 50.51131 -104.53545 14781 ft 198 kts 102°
2026-04-17 03:23 50.50985 -104.51382 15195 ft 198 kts 102°
2026-04-17 03:23 50.50840 -104.49239 15590 ft 199 kts 103°
2026-04-17 03:23 50.50695 -104.47074 15974 ft 200 kts 103°
2026-04-17 03:24 50.50550 -104.44934 16346 ft 201 kts 103°
2026-04-17 03:24 50.50401 -104.42728 16697 ft 203 kts 104°
2026-04-17 03:24 50.50254 -104.40546 17054 ft 205 kts 104°
2026-04-17 03:24 50.50102 -104.38310 17456 ft 208 kts 105°
2026-04-17 03:25 50.49950 -104.36045 17936 ft 207 kts 105°
2026-04-17 03:25 50.49799 -104.33811 18400 ft 205 kts 106°
2026-04-17 03:25 50.49647 -104.31606 18772 ft 207 kts 108°
2026-04-17 03:25 50.49491 -104.29336 19113 ft 210 kts 108°
2026-04-17 03:26 50.49333 -104.27042 19496 ft 211 kts 108°
2026-04-17 03:26 50.49176 -104.24751 19865 ft 210 kts 110°
2026-04-17 03:26 50.49021 -104.22501 20241 ft 211 kts 110°
2026-04-17 03:26 50.48861 -104.20197 20627 ft 213 kts 112°
2026-04-17 03:27 50.48700 -104.17875 21066 ft 213 kts 112°
2026-04-17 03:27 50.48543 -104.15596 21539 ft 212 kts 114°
2026-04-17 03:27 50.48386 -104.13329 22011 ft 210 kts 115°
2026-04-17 03:27 50.48228 -104.11066 22450 ft 208 kts 117°
2026-04-17 03:28 50.48070 -104.08817 22851 ft 208 kts 118°
2026-04-17 03:28 50.47910 -104.06571 23216 ft 209 kts 119°
2026-04-17 03:28 50.47751 -104.04314 23583 ft 209 kts 121°
2026-04-17 03:28 50.47595 -104.02078 23986 ft 205 kts 122°
2026-04-17 03:29 50.47437 -103.99850 24366 ft 204 kts 121°
2026-04-17 03:29 50.47280 -103.97669 24683 ft 204 kts 123°
2026-04-17 03:29 50.47115 -103.95440 24933 ft 211 kts 121°
2026-04-17 03:29 50.46928 -103.93048 24952 ft 230 kts 119°
2026-04-17 03:30 50.46732 -103.90429 24972 ft 248 kts 117°
2026-04-17 03:30 50.46528 -103.87651 24979 ft 265 kts 116°
2026-04-17 03:30 50.46310 -103.84688 24965 ft 277 kts 115°
2026-04-17 03:30 50.46091 -103.81671 24955 ft 286 kts 114°
2026-04-17 03:31 50.45860 -103.78490 24968 ft 296 kts 113°
2026-04-17 03:31 50.45622 -103.75223 24962 ft 305 kts 113°
2026-04-17 03:31 50.45381 -103.71917 24962 ft 313 kts 112°
2026-04-17 03:31 50.45130 -103.68483 24972 ft 320 kts 112°
2026-04-17 03:32 50.44872 -103.64962 24965 ft 326 kts 112°
2026-04-17 03:32 50.44610 -103.61414 24959 ft 331 kts 112°
2026-04-17 03:32 50.44344 -103.57809 24962 ft 334 kts 112°
2026-04-17 03:32 50.44076 -103.54187 24956 ft 335 kts 111°
2026-04-17 03:33 50.43805 -103.50545 24971 ft 335 kts 111°
2026-04-17 03:33 50.43532 -103.46913 24951 ft 337 kts 111°
2026-04-17 03:33 50.43257 -103.43282 24950 ft 337 kts 111°
2026-04-17 03:33 50.42978 -103.39609 24963 ft 338 kts 111°
2026-04-17 03:34 50.42698 -103.35950 24975 ft 337 kts 111°
2026-04-17 03:34 50.42421 -103.32341 24940 ft 339 kts 111°
2026-04-17 03:34 50.42136 -103.28654 24953 ft 338 kts 112°
2026-04-17 03:34 50.41854 -103.25008 25004 ft 337 kts 111°
2026-04-17 03:35 50.41569 -103.21357 24927 ft 339 kts 112°
2026-04-17 03:35 50.41286 -103.17710 25011 ft 337 kts 112°
2026-04-17 03:35 50.40996 -103.14035 24959 ft 339 kts 112°
2026-04-17 03:35 50.40708 -103.10377 24939 ft 339 kts 112°
2026-04-17 03:36 50.40128 -103.03089 24957 ft 340 kts 111°
2026-04-17 03:36 50.39834 -102.99399 24962 ft 339 kts 111°
2026-04-17 03:36 50.39538 -102.95723 24970 ft 340 kts 112°
2026-04-17 03:37 50.39244 -102.92069 24985 ft 339 kts 112°
2026-04-17 03:37 50.38946 -102.88389 24970 ft 340 kts 111°
2026-04-17 03:37 50.38646 -102.84695 24958 ft 340 kts 111°
2026-04-17 03:37 50.38348 -102.81042 24974 ft 340 kts 111°
2026-04-17 03:38 50.38046 -102.77348 24954 ft 340 kts 110°
2026-04-17 03:38 50.37745 -102.73688 24944 ft 341 kts 110°
2026-04-17 03:38 50.37440 -102.69989 24976 ft 341 kts 110°
2026-04-17 03:38 50.37135 -102.66300 24978 ft 341 kts 111°
2026-04-17 03:39 50.36830 -102.62644 24939 ft 342 kts 111°
2026-04-17 03:39 50.36523 -102.58958 24959 ft 341 kts 110°
2026-04-17 03:39 50.36212 -102.55244 24959 ft 341 kts 110°
2026-04-17 03:39 50.35876 -102.51586 24958 ft 339 kts 112°
2026-04-17 03:40 50.35432 -102.47960 24967 ft 336 kts 115°
2026-04-17 03:40 50.34891 -102.44475 24985 ft 333 kts 118°
2026-04-17 03:40 50.34308 -102.40918 24951 ft 334 kts 118°
2026-04-17 03:40 50.33734 -102.37429 24949 ft 334 kts 117°
2026-04-17 03:41 50.33158 -102.33923 24967 ft 334 kts 118°
2026-04-17 03:41 50.32579 -102.30418 24969 ft 333 kts 118°
2026-04-17 03:41 50.32001 -102.26912 24941 ft 334 kts 119°
2026-04-17 03:41 50.31419 -102.23394 25004 ft 332 kts 118°
2026-04-17 03:42 50.30837 -102.19878 24923 ft 335 kts 118°
2026-04-17 03:42 50.30246 -102.16321 24951 ft 334 kts 118°
2026-04-17 03:42 50.29666 -102.12829 24965 ft 334 kts 118°
2026-04-17 03:42 50.29078 -102.09304 24958 ft 335 kts 118°
2026-04-17 03:43 50.28495 -102.05816 24953 ft 335 kts 117°
2026-04-17 03:43 50.27897 -102.02237 24979 ft 335 kts 118°
2026-04-17 03:43 50.27309 -101.98729 24946 ft 336 kts 118°
2026-04-17 03:43 50.26723 -101.95234 24949 ft 335 kts 118°
2026-04-17 03:44 50.26129 -101.91707 24964 ft 335 kts 117°
2026-04-17 03:44 50.25539 -101.88206 24923 ft 336 kts 118°
2026-04-17 03:44 50.24945 -101.84686 24960 ft 335 kts 117°
2026-04-17 03:44 50.24349 -101.81167 24951 ft 335 kts 117°
2026-04-17 03:45 50.23750 -101.77643 24952 ft 335 kts 118°
2026-04-17 03:45 50.23147 -101.74095 24954 ft 335 kts 117°
2026-04-17 03:45 50.22548 -101.70576 24949 ft 335 kts 117°
2026-04-17 03:45 50.21948 -101.67062 24960 ft 335 kts 117°
2026-04-17 03:46 50.21344 -101.63535 24930 ft 336 kts 117°
2026-04-17 03:46 50.20744 -101.60034 24953 ft 335 kts 117°
2026-04-17 03:46 50.20137 -101.56495 24973 ft 335 kts 118°
2026-04-17 03:46 50.19539 -101.53028 24937 ft 336 kts 118°
2026-04-17 03:47 50.18932 -101.49496 25002 ft 335 kts 117°
2026-04-17 03:47 50.18317 -101.45953 24946 ft 337 kts 117°
2026-04-17 03:47 50.17718 -101.42487 24931 ft 337 kts 117°
2026-04-17 03:47 50.17104 -101.38944 24956 ft 337 kts 117°
2026-04-17 03:48 50.16492 -101.35423 24970 ft 336 kts 117°
2026-04-17 03:48 50.15876 -101.31891 24950 ft 337 kts 118°
2026-04-17 03:48 50.15267 -101.28400 24948 ft 336 kts 118°
2026-04-17 03:48 50.14650 -101.24869 24938 ft 336 kts 117°
2026-04-17 03:49 50.14036 -101.21363 24954 ft 335 kts 118°
2026-04-17 03:49 50.13425 -101.17880 24943 ft 336 kts 118°
2026-04-17 03:49 50.12806 -101.14359 24942 ft 335 kts 118°
2026-04-17 03:49 50.12188 -101.10857 24945 ft 335 kts 118°
2026-04-17 03:50 50.11566 -101.07336 24933 ft 336 kts 117°
2026-04-17 03:50 50.10951 -101.03867 24937 ft 335 kts 117°
2026-04-17 03:50 50.10327 -101.00344 24938 ft 335 kts 118°
2026-04-17 03:50 50.09711 -100.96874 24951 ft 335 kts 118°
2026-04-17 03:51 50.09087 -100.93372 24922 ft 336 kts 118°
2026-04-17 03:51 50.08459 -100.89848 24925 ft 336 kts 117°
2026-04-17 03:51 50.07835 -100.86356 24947 ft 335 kts 118°
2026-04-17 03:51 50.07213 -100.82886 24940 ft 336 kts 117°
2026-04-17 03:52 50.06581 -100.79366 24919 ft 337 kts 117°
2026-04-17 03:52 50.05953 -100.75871 24924 ft 337 kts 117°
2026-04-17 03:52 50.05320 -100.72355 24919 ft 337 kts 117°
2026-04-17 03:52 50.04689 -100.68857 24924 ft 337 kts 117°
2026-04-17 03:53 50.04052 -100.65334 24922 ft 337 kts 118°
2026-04-17 03:53 50.03417 -100.61826 24909 ft 337 kts 118°
2026-04-17 03:53 50.02786 -100.58348 24926 ft 337 kts 117°
2026-04-17 03:53 50.02139 -100.54794 24922 ft 337 kts 117°
2026-04-17 03:54 50.01507 -100.51320 24915 ft 338 kts 117°
2026-04-17 03:54 50.00864 -100.47803 24918 ft 338 kts 117°
2026-04-17 03:54 50.00216 -100.44259 24939 ft 338 kts 117°
2026-04-17 03:54 49.99573 -100.40752 24917 ft 339 kts 117°
2026-04-17 03:55 49.98932 -100.37257 24878 ft 340 kts 116°
2026-04-17 03:55 49.98282 -100.33720 24941 ft 338 kts 117°
2026-04-17 03:55 49.97631 -100.30198 24901 ft 338 kts 118°
2026-04-17 03:55 49.96991 -100.26724 24903 ft 338 kts 118°
2026-04-17 03:56 49.96337 -100.23186 24927 ft 338 kts 118°
2026-04-17 03:56 49.95686 -100.19674 24907 ft 338 kts 118°
2026-04-17 03:56 49.95037 -100.16178 24917 ft 338 kts 117°
2026-04-17 03:56 49.94389 -100.12701 24915 ft 338 kts 118°
2026-04-17 03:57 49.93740 -100.09216 24898 ft 338 kts 118°
2026-04-17 03:57 49.93090 -100.05734 24899 ft 338 kts 118°
2026-04-17 03:57 49.92427 -100.02194 24916 ft 337 kts 118°
2026-04-17 03:57 49.91782 -99.98742 24906 ft 337 kts 117°
2026-04-17 03:58 49.91229 -99.95171 24888 ft 343 kts 112°
2026-04-17 03:58 49.90868 -99.91464 24916 ft 348 kts 106°
2026-04-17 03:58 49.90676 -99.87721 24925 ft 350 kts 104°
2026-04-17 03:58 49.90505 -99.83939 24907 ft 351 kts 104°
2026-04-17 03:59 49.90331 -99.80153 24920 ft 351 kts 104°
2026-04-17 03:59 49.90156 -99.76392 24917 ft 351 kts 103°
2026-04-17 03:59 49.89986 -99.72669 25116 ft 336 kts 104°
2026-04-17 03:59 49.89868 -99.69379 26058 ft 289 kts 105°
2026-04-17 04:00 49.89725 -99.66180 25283 ft 309 kts 105°
2026-04-17 04:00 49.89551 -99.62882 25184 ft 300 kts 105°
2026-04-17 04:00 49.89394 -99.59710 25178 ft 291 kts 106°
2026-04-17 04:00 49.89238 -99.56608 25032 ft 290 kts 105°
2026-04-17 04:01 49.89084 -99.53509 25032 ft 289 kts 105°
2026-04-17 04:01 49.88929 -99.50404 25040 ft 290 kts 105°
2026-04-17 04:01 49.88775 -99.47308 25057 ft 290 kts 105°
2026-04-17 04:01 49.88620 -99.44162 25118 ft 288 kts 106°
2026-04-17 04:02 49.88469 -99.41129 25131 ft 284 kts 106°
2026-04-17 04:02 49.88314 -99.38065 25038 ft 286 kts 106°
2026-04-17 04:02 49.88157 -99.34952 24952 ft 286 kts 105°
2026-04-17 04:02 49.88003 -99.31903 24951 ft 283 kts 106°
2026-04-17 04:03 49.87850 -99.28863 24950 ft 282 kts 106°
2026-04-17 04:03 49.87694 -99.25822 24957 ft 282 kts 106°
2026-04-17 04:03 49.87538 -99.22790 24972 ft 283 kts 106°
2026-04-17 04:03 49.87382 -99.19762 24976 ft 284 kts 105°
2026-04-17 04:04 49.87225 -99.16732 24952 ft 284 kts 106°
2026-04-17 04:04 49.87066 -99.13677 24948 ft 283 kts 105°
2026-04-17 04:04 49.86906 -99.10641 24813 ft 288 kts 106°
2026-04-17 04:04 49.86738 -99.07495 24629 ft 290 kts 105°
2026-04-17 04:05 49.86582 -99.04487 24403 ft 281 kts 106°
2026-04-17 04:05 49.86398 -99.01301 23415 ft 315 kts 104°
2026-04-17 04:05 49.86216 -98.97925 23092 ft 320 kts 103°
2026-04-17 04:05 49.86029 -98.94456 22756 ft 324 kts 103°
2026-04-17 04:06 49.85841 -98.90966 22408 ft 327 kts 102°
2026-04-17 04:06 49.85651 -98.87475 22067 ft 329 kts 102°
2026-04-17 04:06 49.85458 -98.83922 21701 ft 327 kts 102°
2026-04-17 04:06 49.85269 -98.80473 21353 ft 323 kts 102°
2026-04-17 04:07 49.85080 -98.77031 20968 ft 321 kts 102°
2026-04-17 04:07 49.84888 -98.73573 20601 ft 319 kts 102°
2026-04-17 04:07 49.84699 -98.70192 20244 ft 317 kts 102°
2026-04-17 04:07 49.84507 -98.66774 19886 ft 315 kts 102°
2026-04-17 04:08 49.84318 -98.63438 19520 ft 313 kts 102°
2026-04-17 04:08 49.84128 -98.60079 19157 ft 311 kts 101°
2026-04-17 04:08 49.83938 -98.56757 18788 ft 309 kts 101°
2026-04-17 04:08 49.83749 -98.53450 18432 ft 308 kts 101°
2026-04-17 04:09 49.83561 -98.50185 18059 ft 306 kts 101°
2026-04-17 04:09 49.83373 -98.46939 17708 ft 305 kts 101°
2026-04-17 04:09 49.83183 -98.43677 17343 ft 304 kts 100°
2026-04-17 04:09 49.82993 -98.40440 16974 ft 303 kts 100°
2026-04-17 04:10 49.82803 -98.37189 16615 ft 301 kts 100°
2026-04-17 04:10 49.82612 -98.33973 16249 ft 296 kts 100°
2026-04-17 04:10 49.82426 -98.30842 15869 ft 293 kts 100°
2026-04-17 04:10 49.82243 -98.27757 15493 ft 289 kts 100°
2026-04-17 04:11 49.82058 -98.24672 15117 ft 286 kts 101°
2026-04-17 04:11 49.81875 -98.21628 14738 ft 282 kts 99°
2026-04-17 04:11 49.81676 -98.18647 14358 ft 279 kts 101°
2026-04-17 04:11 49.81463 -98.15646 13983 ft 277 kts 100°
2026-04-17 04:12 49.81254 -98.12714 13606 ft 274 kts 100°
2026-04-17 04:12 49.81048 -98.09827 13237 ft 272 kts 100°
2026-04-17 04:12 49.80839 -98.06902 12862 ft 271 kts 100°
2026-04-17 04:12 49.80633 -98.04022 12488 ft 270 kts 99°
2026-04-17 04:13 49.80426 -98.01138 12115 ft 269 kts 99°
2026-04-17 04:13 49.80221 -97.98277 11741 ft 269 kts 99°
2026-04-17 04:13 49.80014 -97.95396 11360 ft 268 kts 99°
2026-04-17 04:13 49.79808 -97.92542 10975 ft 267 kts 98°
2026-04-17 04:14 49.79602 -97.89706 10605 ft 266 kts 98°
2026-04-17 04:14 49.79397 -97.86877 10225 ft 264 kts 98°
2026-04-17 04:14 49.79193 -97.84087 9843 ft 263 kts 98°
2026-04-17 04:14 49.78986 -97.81261 9458 ft 263 kts 98°
2026-04-17 04:15 49.78780 -97.78453 9079 ft 262 kts 98°
2026-04-17 04:15 49.78576 -97.75685 8704 ft 261 kts 98°
2026-04-17 04:15 49.78368 -97.72865 8308 ft 261 kts 98°
2026-04-17 04:15 49.78164 -97.70126 7932 ft 260 kts 97°
2026-04-17 04:16 49.77958 -97.67349 7543 ft 259 kts 97°
2026-04-17 04:16 49.77752 -97.64590 7159 ft 258 kts 97°
2026-04-17 04:16 49.77546 -97.61836 6774 ft 258 kts 96°
2026-04-17 04:16 49.77338 -97.59072 6384 ft 257 kts 96°
2026-04-17 04:17 49.77132 -97.56355 5994 ft 252 kts 96°
2026-04-17 04:17 49.76931 -97.53701 5595 ft 246 kts 95°
2026-04-17 04:17 49.76736 -97.51130 5186 ft 238 kts 95°
2026-04-17 04:17 49.76546 -97.48637 4781 ft 230 kts 94°
2026-04-17 04:18 49.76359 -97.46221 4363 ft 218 kts 94°
2026-04-17 04:18 49.76187 -97.43990 3949 ft 206 kts 93°
2026-04-17 04:18 49.76020 -97.41830 3531 ft 195 kts 93°
2026-04-17 04:18 49.75863 -97.39790 3131 ft 192 kts 92°
2026-04-17 04:19 49.75674 -97.37730 2973 ft 191 kts 94°
2026-04-17 04:19 49.75478 -97.35738 2959 ft 187 kts 93°
2026-04-17 04:19 49.75285 -97.33754 2954 ft 182 kts 93°
2026-04-17 04:19 49.75115 -97.31850 2947 ft 172 kts 88°
2026-04-17 04:20 49.75260 -97.30107 2945 ft 160 kts 69°
2026-04-17 04:20 49.75777 -97.28619 2956 ft 153 kts 51°
2026-04-17 04:20 49.76566 -97.27548 2956 ft 149 kts 33°
2026-04-17 04:20 49.77531 -97.26962 2959 ft 151 kts 15°
2026-04-17 04:21 49.78581 -97.26714 2960 ft 154 kts 12°
2026-04-17 04:21 49.79621 -97.26482 2856 ft 148 kts 13°
2026-04-17 04:21 49.80597 -97.26254 2649 ft 135 kts 11°
2026-04-17 04:21 49.81492 -97.26045 2482 ft 123 kts 11°
2026-04-17 04:22 49.82311 -97.25855 2307 ft 114 kts 11°
2026-04-17 04:22 49.83060 -97.25680 2144 ft 105 kts
2026-04-17 04:22 49.83761 -97.25518 1994 ft 99 kts
2026-04-17 04:22 49.84454 -97.25359 1862 ft 101 kts
2026-04-17 04:23 49.85167 -97.25195 1724 ft 106 kts
2026-04-17 04:23 49.85907 -97.25022 1566 ft 106 kts
2026-04-17 04:23 49.86602 -97.24860 1410 ft 96 kts
2026-04-17 04:23 49.87148 -97.24734 1289 ft 85 kts
2026-04-17 04:24 49.87430 -97.24669 1234 ft 80 kts
2026-04-17 04:24 49.88068 -97.24533 1136 ft 101 kts
2026-04-17 04:24 49.88724 -97.24371 983 ft 91 kts
2026-04-17 04:24 49.89321 -97.24237 826 ft 85 kts
2026-04-17 04:25 49.89899 -97.24059 777 ft 76 kts
2026-04-17 04:25 49.90198 -97.23994 769 ft 53 kts
2026-04-17 04:25 49.90438 -97.23969 769 ft 11 kts
2026-04-17 04:25 49.90576 -97.23947 769 ft 28 kts
2026-04-17 04:26 49.90738 -97.23907 771 ft 11 kts 352°
2026-04-17 04:26 49.90774 -97.24007 771 ft 14 kts 257°
2026-04-17 04:26 49.90762 -97.24091 771 ft 0 kts 258°
2026-04-17 04:27 49.90761 -97.24101 771 ft 0 kts 258°
2026-04-17 04:28 49.90757 -97.24129 772 ft 0 kts 258°
2026-04-17 04:28 49.90752 -97.24171 773 ft 16 kts 259°
2026-04-17 04:28 49.90738 -97.24275 773 ft 7 kts 260°
2026-04-17 04:28 49.90693 -97.24430 773 ft 24 kts 228°
2026-04-17 04:29 49.90607 -97.24651 773 ft 25 kts 257°
2026-04-17 04:29 49.90572 -97.24983 773 ft 33 kts 268°
2026-04-17 04:29 49.90545 -97.25211 776 ft 12 kts 218°
2026-04-17 04:29 49.90442 -97.25231 776 ft 6 kts 114°
2026-04-17 04:30 49.90443 -97.25220 776 ft 0 kts 73°